Home   Weather   Madison   Past weeks

Flag for USA Past Weather in Madison, Wisconsin, USA — Yesterday and Last 2 Weeks

Now
57 °F

Clear.


Feels Like: 55 °F
Forecast: 56 / 63 °F
Wind: 9 mph from Northeast

Location: Dane County Regional-Truax Field

Current Time: Sep 29, 2016 at 10:20:27 PM

Latest Report: Sep 29, 2016 at 9:53 PM


Visibility: 10 mi

Pressure: 30.30 "Hg

Humidity: 74%

Dew Point: 49 °F

Location of MadisonLocation

Past Weather in Madison — Graph

°F

Madison Temperature Yesterday

Maximum temperature yesterday: 61 °F (at 4:53 PM)
Minimum temperature yesterday: 48 °F (at 12:53 AM)
Average temperature yesterday: 53 °F

High & Low Weather Summary for the Past Weeks

 TemperatureHumidityPressure
High83 °F (Sep 20, 3:53 PM)100% (Sep 19, 11:53 PM)30.32 "Hg (Sep 19, 11:53 PM)
Low48 °F (Sep 27, 10:53 PM)29% (Sep 26, 4:53 PM)29.72 "Hg (Sep 27, 2:53 PM)
Average64 °F78%30.02 "Hg
* Reported Sep 14 8:53 PM — Sep 29 8:53 PM, Madison, Weather by CustomWeather, © 2016

Note: Actual official high and low records may vary slightly from our data, if they occured in-between our weather recording intervals... More about our weather records

Advertising

Madison Weather History for the Previous 24 Hours

Scroll right to see more
 ConditionsComfort  
Time TempWeatherWind HumidityBarometerVisibility
8:53 PM
Thu, Sep 29
58 °FClear.8 mph75%30.31 "Hg10 mi
7:53 PM62 °FClear.12 mph70%30.31 "Hg10 mi
6:53 PM64 °FPassing clouds.12 mph65%30.30 "Hg10 mi
5:53 PM67 °FPassing clouds.16 mph59%30.28 "Hg10 mi
4:53 PM70 °FScattered clouds.21 mph53%30.27 "Hg10 mi
3:53 PM71 °FPassing clouds.18 mph49%30.27 "Hg10 mi
2:53 PM71 °FScattered clouds.20 mph51%30.27 "Hg10 mi
1:53 PM71 °FScattered clouds.21 mph57%30.29 "Hg10 mi
12:53 PM70 °FScattered clouds.17 mph57%30.30 "Hg10 mi
11:53 AM67 °FPassing clouds.16 mph63%30.32 "Hg10 mi
10:53 AM62 °FPassing clouds.17 mph75%30.32 "Hg10 mi
9:58 AM58 °FScattered clouds.15 mph84%30.31 "Hg10 mi
8:53 AM54 °FLow clouds.15 mph90%30.31 "Hg10 mi
7:53 AM52 °FLow clouds.15 mph93%30.30 "Hg10 mi
6:53 AM52 °FOvercast.10 mph93%30.29 "Hg10 mi
5:53 AM52 °FPassing clouds.14 mph93%30.26 "Hg10 mi
4:53 AM52 °FPassing clouds.13 mph93%30.26 "Hg10 mi
3:53 AM52 °FPassing clouds.15 mph93%30.25 "Hg10 mi
2:53 AM52 °FPassing clouds.14 mph93%30.24 "Hg10 mi
1:53 AM51 °FClear.N/A92%30.23 "Hg10 mi
12:53 AM52 °FClear.12 mph93%30.22 "Hg10 mi
11:53 PM
Wed, Sep 28
51 °FClear.9 mph92%30.22 "Hg10 mi
10:53 PM51 °FClear.8 mph89%30.21 "Hg10 mi
Weather by CustomWeather, © 2016

See weather overviewHow to use our weather pages